Date String (YYYY-MM-DD hh:mm:ss) UTC,Instrument flags,Ambient pressure (hPa),Sample flow (lpm),Bypass flow (lpm),Sample temperature (°C),Ambient temperature (°C),ASC tube jacket temperature (°C),LED temperature (°C),Box temperature (°C),Sample RH (%),Span deviation,Mass concentration (μg/m³),Mass concentration (μg/m³),Mass concentration (μg/m³)
DateTimeUTC,F1_M11,P_M11,Q1_M11,Q2_M11,T1_M11,T2_M11,T3_M11,T4_M11,T5_M11,U1_M11,ZSPAN_M11,X0_M11,X2_M11,X1_M11
2021-09-02 07:00:00,,0824.1,5.01,0.00,29.7,28.5,00.0,38.7,31.4,31.3,0001.9,0021.00,0014.80,0013.89
2021-09-02 07:01:00,,0824.1,4.99,0.00,29.6,26.7,00.0,38.7,31.0,31.5,0001.8,0021.50,0014.87,0013.89
2021-09-02 07:02:00,,0824.1,5.00,0.00,29.5,26.1,00.0,38.7,30.8,31.7,0001.8,0021.27,0014.88,0013.86
2021-09-02 07:03:00,,0824.1,5.01,0.00,29.4,26.3,00.0,38.6,30.8,31.9,0002.0,0020.82,0014.83,0013.80
2021-09-02 07:04:00,,0824.1,5.00,0.00,29.3,26.8,00.0,38.6,30.9,31.9,0002.0,0020.59,0014.74,0013.72
2021-09-02 07:05:00,,0824.1,5.00,0.00,29.3,27.1,00.0,38.6,30.9,32.0,0002.0,0020.25,0014.65,0013.67
2021-09-02 07:06:00,,0824.1,5.00,0.00,29.3,27.4,00.0,38.6,31.0,31.9,0002.1,0020.16,0014.57,0013.63
2021-09-02 07:07:00,,0824.1,5.01,0.00,29.3,27.7,00.0,38.5,31.1,31.9,0002.2,0019.91,0014.51,0013.58
2021-09-02 07:08:00,,0824.2,4.99,0.00,29.4,27.9,00.0,38.5,31.1,31.8,0002.2,0019.79,0014.44,0013.56
2021-09-02 07:09:00,,0824.2,5.02,0.00,29.4,28.0,00.0,38.5,31.2,31.8,0002.2,0020.44,0014.38,0013.53
2021-09-02 07:10:00,,0824.2,5.01,0.00,29.4,28.1,00.0,38.5,31.2,31.8,0002.0,0020.88,0014.36,0013.52
2021-09-02 07:11:00,,0824.2,4.99,0.00,29.4,28.3,00.0,38.6,31.3,31.7,0001.9,0021.21,0014.35,0013.50
2021-09-02 07:12:00,,0824.3,5.00,0.00,29.5,28.4,00.0,38.6,31.3,31.6,0002.0,0020.84,0014.28,0013.46
2021-09-02 07:13:00,,0824.3,5.01,0.00,29.5,28.4,00.0,38.6,31.3,31.6,0002.0,0021.18,0014.26,0013.42
2021-09-02 07:14:00,,0824.3,4.99,0.00,29.5,28.5,00.0,38.6,31.3,31.6,0001.9,0021.93,0014.28,0013.44
2021-09-02 07:15:00,,0824.3,5.01,0.00,29.5,28.6,00.0,38.6,31.3,31.5,0001.9,0022.11,0014.33,0013.47
2021-09-02 07:16:00,,0824.2,5.00,0.00,29.5,28.6,00.0,38.6,31.3,31.5,0001.9,0022.27,0014.38,0013.50
2021-09-02 07:17:00,,0824.2,5.01,0.00,29.6,28.6,00.0,38.6,31.3,31.5,0001.8,0022.22,0014.40,0013.51
2021-09-02 07:18:00,,0824.3,5.00,0.00,29.6,28.7,00.0,38.6,31.4,31.5,0001.6,0022.15,0014.41,0013.52
2021-09-02 07:19:00,,0824.2,5.00,0.00,29.6,28.7,00.0,38.7,31.4,31.4,0001.5,0021.73,0014.38,0013.50
2021-09-02 07:20:00,,0824.3,5.00,0.00,29.6,28.8,00.0,38.7,31.4,31.4,0001.5,0020.92,0014.37,0013.49
2021-09-02 07:21:00,,0824.3,5.00,0.00,29.6,28.8,00.0,38.7,31.4,31.4,0001.6,0020.44,0014.38,0013.48
2021-09-02 07:22:00,,0824.2,5.00,0.00,29.6,28.8,00.0,38.7,31.4,31.3,0001.6,0020.05,0014.35,0013.46
2021-09-02 07:23:00,,0824.3,4.99,0.00,29.7,28.8,00.0,38.7,31.4,31.3,0001.7,0019.86,0014.32,0013.47
2021-09-02 07:24:00,,0824.2,4.99,0.00,29.7,28.4,00.0,38.7,31.3,31.3,0001.9,0019.35,0014.29,0013.49
2021-09-02 07:25:00,,0824.2,5.01,0.00,29.6,26.7,00.0,38.7,30.9,31.5,0001.9,0018.82,0014.27,0013.48
2021-09-02 07:26:00,,0824.2,5.00,0.00,29.4,26.1,00.0,38.7,30.8,31.8,0001.8,0019.25,0014.28,0013.47
2021-09-02 07:27:00,,0824.1,5.00,0.00,29.4,26.3,00.0,38.6,30.8,31.9,0001.8,0019.24,0014.29,0013.48
2021-09-02 07:28:00,,0824.1,5.01,0.00,29.3,26.8,00.0,38.6,30.8,32.1,0001.9,0019.19,0014.29,0013.48
2021-09-02 07:29:00,,0824.1,5.00,0.00,29.3,27.1,00.0,38.6,30.9,32.1,0002.0,0019.11,0014.26,0013.48
2021-09-02 07:30:00,,0824.2,4.99,0.00,29.3,27.4,00.0,38.5,31.0,32.1,0001.9,0019.03,0014.32,0013.51
2021-09-02 07:31:00,,0824.2,5.01,0.00,29.3,27.7,00.0,38.5,31.0,32.2,0001.9,0019.05,0014.39,0013.54
2021-09-02 07:32:00,,0824.2,4.99,0.00,29.3,27.9,00.0,38.5,31.0,32.2,0002.0,0018.98,0014.41,0013.57
2021-09-02 07:33:00,,0824.1,5.00,0.00,29.3,28.0,00.0,38.5,31.1,32.1,0002.0,0018.94,0014.41,0013.58
2021-09-02 07:34:00,,0824.1,5.00,0.00,29.3,28.1,00.0,38.5,31.2,32.1,0001.9,0018.99,0014.45,0013.59
2021-09-02 07:35:00,,0824.1,5.01,0.00,29.4,28.2,00.0,38.5,31.2,32.0,0001.8,0019.09,0014.49,0013.58
2021-09-02 07:36:00,,0824.1,4.99,0.00,29.4,28.3,00.0,38.5,31.2,31.9,0001.8,0019.21,0014.50,0013.60
2021-09-02 07:37:00,,0824.1,5.01,0.00,29.4,28.4,00.0,38.5,31.3,31.9,0001.7,0018.84,0014.44,0013.60
2021-09-02 07:38:00,,0824.1,5.00,0.00,29.5,28.5,00.0,38.5,31.3,31.8,0001.7,0019.02,0014.41,0013.60
2021-09-02 07:39:00,,0824.1,4.99,0.00,29.5,28.5,00.0,38.6,31.3,31.8,0001.6,0019.17,0014.39,0013.59
2021-09-02 07:40:00,,0824.1,5.01,0.00,29.5,28.6,00.0,38.6,31.3,31.7,0001.7,0019.43,0014.42,0013.58
2021-09-02 07:41:00,,0824.1,5.01,0.00,29.5,28.6,00.0,38.6,31.4,31.6,0001.7,0019.51,0014.40,0013.58
2021-09-02 07:42:00,,0824.1,4.98,0.00,29.6,28.7,00.0,38.6,31.4,31.6,0001.8,0019.53,0014.38,0013.55
2021-09-02 07:43:00,,0824.1,5.01,0.00,29.6,28.7,00.0,38.6,31.4,31.6,0002.0,0019.47,0014.36,0013.55
2021-09-02 07:44:00,,0824.1,5.00,0.00,29.6,28.7,00.0,38.6,31.4,31.6,0002.0,0019.46,0014.33,0013.52
2021-09-02 07:45:00,,0824.1,5.00,0.00,29.6,28.8,00.0,38.7,31.4,31.5,0002.0,0019.75,0014.34,0013.48
2021-09-02 07:46:00,,0824.1,5.00,0.00,29.7,28.8,00.0,38.7,31.5,31.4,0002.0,0020.24,0014.31,0013.45
2021-09-02 07:47:00,,0824.0,5.01,0.00,29.7,28.8,00.0,38.7,31.5,31.4,0001.9,0020.05,0014.28,0013.42
2021-09-02 07:48:00,,0824.0,5.01,0.00,29.7,28.9,00.0,38.7,31.5,31.4,0002.0,0019.99,0014.34,0013.42
2021-09-02 07:49:00,,0824.1,4.99,0.00,29.7,28.9,00.0,38.7,31.5,31.4,0002.1,0019.73,0014.37,0013.42
2021-09-02 07:50:00,,0824.1,5.01,0.00,29.7,28.6,00.0,38.8,31.4,31.4,0002.0,0019.87,0014.34,0013.43
2021-09-02 07:51:00,,0824.1,5.00,0.00,29.6,27.0,00.0,38.7,31.0,31.5,0001.9,0020.21,0014.32,0013.43
2021-09-02 07:52:00,,0824.1,5.00,0.00,29.5,26.1,00.0,38.7,30.8,31.7,0001.9,0020.57,0014.30,0013.40
2021-09-02 07:53:00,,0824.1,5.01,0.00,29.4,26.3,00.0,38.7,30.8,31.9,0001.7,0020.66,0014.32,0013.40
2021-09-02 07:54:00,,0824.1,5.00,0.00,29.3,26.7,00.0,38.6,30.9,32.0,0001.5,0020.74,0014.31,0013.37
2021-09-02 07:55:00,,0824.1,4.99,0.00,29.3,27.1,00.0,38.6,30.9,32.0,0001.5,0021.00,0014.29,0013.35
2021-09-02 07:56:00,,0824.1,4.99,0.00,29.3,27.4,00.0,38.5,31.0,32.1,0001.5,0020.90,0014.21,0013.35
2021-09-02 07:57:00,,0824.1,5.00,0.00,29.4,27.7,00.0,38.5,31.1,32.0,0001.4,0020.08,0014.13,0013.33
2021-09-02 07:58:00,,0824.1,5.01,0.00,29.4,27.9,00.0,38.6,31.1,31.9,0001.6,0019.94,0014.10,0013.31
2021-09-02 07:59:00,,0824.1,4.99,0.00,29.4,28.0,00.0,38.6,31.2,31.8,0001.6,0019.83,0014.03,0013.27
